User: anonymous   Login
Location: Muenchen
(48.1800°N, 11.5800°E)
Time: 16:29:52
(UTC+02:00)
Language:

Cosmos 2233 Rocket - Orbit

View from above orbital plane
View from above orbital plane
View from above satellite
View from above satellite

Ground track
Ground track

The orbit data is extracted from the following two-line orbital elements,

1 22488U 93008B   16180.09346911 -.00000027  00000-0 -42407-4 0  9995
2 22488  82.9419 341.9324 0026381 135.4673   1.6177 13.77699314175504
Epoch (UTC): 28 June 2016 02:14:35
Eccentricity: 0.0026381
inclination: 82.9419°
perigee height: 952 km
apogee height: 991 km
right ascension of ascending node: 341.9324°
argument of perigee: 135.4673°
revolutions per day: 13.77699314
mean anomaly at epoch: 1.6177°
orbit number at epoch: 17550

The dashed part of the orbit path shows where the satellite is in the earth's shadow,  

DLR